Bastrop, LA

2:38 PM CDT on March 29, 2017 (GMT -0500)
Bastrop

Weather History for KBQP - June, 2013

Change the Weather History Date:

Saturday, June 29, 2013

  Actual Average (KMLU) Record (KMLU)
Temperature  
Mean Temperature 82 °F -  
Max Temperature 93 °F 92 °F 102 °F (1988)
Min Temperature 72 °F 71 °F 62 °F (1974)
Cooling Degree Days 18    
Growing Degree Days 32 (Base 50)    
Moisture  
Dew Point 68 °F    
Average Humidity 66    
Maximum Humidity 92    
Minimum Humidity 34    
Precipitation  
Precipitation 0.02 in - - ()
Sea Level Pressure  
Sea Level Pressure 29.78 in    
Wind  
Wind Speed 1 mph (NNW)    
Max Wind Speed 13 mph    
Max Gust Speed 20 mph    
Visibility 10 miles    
Events      
Averages and records for this station are not official NWS values.
T = Trace of Precipitation, MM = Missing Value Source: NWS Daily Summary

Daily Weather History Graph

Daily Weather History Graph

Search for Another Location

Airport or City:

Trip Planner

Search our weather history database for the weather conditions in past years. The results will help you decide how hot, cold, wet, or windy it might be!

Date:

Astronomy

Jun. 29, 2013 Rise Set
Actual Time 6:02 AM CDT 8:19 PM CDT
Civil Twilight 5:33 AM CDT 8:48 PM CDT
Nautical Twilight 4:58 AM CDT 9:23 PM CDT
Astronomical Twilight 4:20 AM CDT 10:00 PM CDT
Moon 12:11 AM CDT 12:50 PM CDT
Length of Visible Light 15h 14m
Length of Day
14h 17m
Waning Gibbous, 55% of the Moon is Illuminated
Jun 29
Waning Gibbous
Jun 29
Last Quarter
Jul 8
New
Jul 15
First Quarter
Jul 22
Full

Hourly Weather History & Observations

Time (CDT) Temp. Heat Index Dew Point Humidity Pressure Visibility Wind Dir Wind Speed Gust Speed Precip Events Conditions
12:15 AM 75.6 °F - 72.5 °F 90% 29.81 in 10.0 mi Calm Calm - N/A   Clear
12:35 AM 75.2 °F - 72.0 °F 90% 29.81 in 10.0 mi Calm Calm - N/A   Clear
12:55 AM 75.6 °F - 70.7 °F 85% 29.81 in 10.0 mi Calm Calm - N/A   Scattered Clouds
1:15 AM 75.7 °F - 70.5 °F 84% 29.80 in 10.0 mi Calm Calm - N/A   Scattered Clouds
1:35 AM 75.6 °F - 70.7 °F 85% 29.80 in 10.0 mi Calm Calm - N/A   Mostly Cloudy
1:55 AM 74.5 °F - 70.7 °F 88% 29.80 in 10.0 mi Calm Calm - N/A   Scattered Clouds
2:15 AM 73.8 °F - 70.7 °F 90% 29.79 in 10.0 mi Calm Calm - N/A   Clear
2:35 AM 73.4 °F - 70.3 °F 90% 29.79 in 10.0 mi Calm Calm - N/A   Clear
2:55 AM 73.0 °F - 70.2 °F 91% 29.78 in 10.0 mi Calm Calm - N/A   Clear
3:15 AM 72.3 °F - 69.6 °F 91% 29.78 in 10.0 mi Calm Calm - N/A   Clear
3:35 AM 73.4 °F - 70.3 °F 90% 29.78 in 10.0 mi Calm Calm - N/A   Clear
3:55 AM 73.6 °F - 70.7 °F 91% 29.78 in 10.0 mi Calm Calm - N/A   Clear
4:15 AM 73.6 °F - 70.9 °F 91% 29.78 in 10.0 mi Calm Calm - N/A   Clear
4:35 AM 73.8 °F - 71.1 °F 91% 29.78 in 10.0 mi Calm Calm - N/A   Clear
4:55 AM 74.3 °F - 71.2 °F 90% 29.78 in 10.0 mi Calm Calm - N/A   Clear
5:15 AM 73.8 °F - 71.2 °F 92% 29.79 in 10.0 mi Calm Calm - N/A   Clear
5:35 AM 74.3 °F - 71.8 °F 92% 29.79 in 7.0 mi Calm Calm - N/A   Clear
5:55 AM 73.9 °F - 71.4 °F 92% 29.79 in 7.0 mi Calm Calm - N/A   Clear
6:15 AM 73.8 °F - 71.1 °F 91% 29.78 in 10.0 mi Calm Calm - N/A   Clear
6:35 AM 74.3 °F - 70.9 °F 89% 29.78 in 10.0 mi Calm Calm - N/A   Clear
6:55 AM 75.4 °F - 71.2 °F 87% 29.78 in 10.0 mi Calm Calm - N/A   Clear
7:15 AM - - - N/A% - - North - - N/A   Unknown
7:35 AM - - - N/A% - - North - - N/A   Unknown
7:55 AM - - - N/A% - - North - - N/A   Unknown
8:15 AM 81.7 °F 86.7 °F 72.5 °F 74% 29.80 in - Calm Calm - N/A   Unknown
8:35 AM 82.6 °F 87.8 °F 72.5 °F 71% 29.80 in 10.0 mi Calm Calm - N/A   Clear
8:55 AM 83.3 °F 88.7 °F 72.1 °F 69% 29.80 in 10.0 mi Calm Calm - N/A   Clear
9:15 AM 84.6 °F 90.7 °F 72.5 °F 67% 29.80 in 10.0 mi Calm Calm - N/A   Clear
9:35 AM 85.8 °F 92.6 °F 72.9 °F 65% 29.81 in 10.0 mi Calm Calm - N/A   Clear
9:55 AM 87.3 °F 94.0 °F 72.3 °F 61% 29.80 in 10.0 mi Calm Calm - N/A   Scattered Clouds
10:15 AM 87.6 °F 91.5 °F 68.5 °F 53% 29.80 in 10.0 mi NE 3.5 mph - N/A   Scattered Clouds
10:35 AM 88.0 °F 91.4 °F 68.0 °F 51% 29.80 in 10.0 mi Calm Calm - N/A   Clear
10:55 AM 88.7 °F 91.5 °F 66.7 °F 48% 29.80 in 10.0 mi Calm Calm - N/A   Clear
11:15 AM 89.6 °F 93.4 °F 68.2 °F 49% 29.80 in 10.0 mi Calm Calm - N/A   Scattered Clouds
11:35 AM 90.1 °F 92.3 °F 65.7 °F 44% 29.81 in 10.0 mi Calm Calm - N/A   Scattered Clouds
11:55 AM 90.3 °F 93.4 °F 66.7 °F 46% 29.81 in 10.0 mi NNE 3.5 mph - N/A   Scattered Clouds
12:15 PM 91.0 °F 92.2 °F 63.7 °F 40% 29.81 in 10.0 mi Calm Calm - N/A   Scattered Clouds
12:35 PM 91.0 °F 92.6 °F 64.2 °F 41% 29.81 in 10.0 mi Calm Calm - N/A   Scattered Clouds
12:55 PM 91.4 °F 93.2 °F 64.4 °F 41% 29.80 in 10.0 mi Calm Calm - N/A   Scattered Clouds
1:15 PM 91.6 °F 92.7 °F 63.7 °F 39% 29.80 in 10.0 mi Calm Calm - N/A   Clear
1:35 PM 91.9 °F 93.3 °F 63.7 °F 39% 29.79 in 10.0 mi NW 6.9 mph - N/A   Clear
1:55 PM 91.6 °F 93.1 °F 64.0 °F 40% 29.79 in 10.0 mi NNW 3.5 mph - N/A   Scattered Clouds
2:15 PM 92.7 °F 93.2 °F 62.1 °F 36% 29.79 in 10.0 mi WNW 8.1 mph 16.1 mph N/A   Scattered Clouds
2:35 PM 92.7 °F 93.2 °F 62.1 °F 36% 29.78 in 10.0 mi NW 12.7 mph 19.6 mph N/A   Clear
2:55 PM 92.7 °F 92.9 °F 61.0 °F 35% 29.78 in 10.0 mi NW 8.1 mph - N/A   Clear
3:15 PM 92.7 °F 92.5 °F 60.8 °F 34% 29.78 in 10.0 mi NW 10.4 mph - N/A   Clear
3:35 PM 93.0 °F 93.8 °F 62.8 °F 36% 29.77 in 10.0 mi NW 9.2 mph - N/A   Clear
3:55 PM 91.2 °F 91.1 °F 61.0 °F 36% 29.76 in 10.0 mi NW 9.2 mph - N/A   Clear
4:15 PM 93.2 °F 93.7 °F 61.5 °F 35% 29.76 in 10.0 mi Calm Calm - N/A   Clear
4:35 PM 92.8 °F 93.1 °F 61.3 °F 35% 29.75 in 10.0 mi NNW 4.6 mph - N/A   Clear
4:55 PM 92.7 °F 92.9 °F 61.5 °F 35% 29.74 in 10.0 mi NW 6.9 mph - N/A   Clear
5:15 PM 92.1 °F 92.8 °F 62.2 °F 37% 29.74 in 10.0 mi Calm Calm - N/A   Clear
5:35 PM 91.9 °F 92.5 °F 61.9 °F 37% 29.74 in 10.0 mi Calm Calm - N/A   Clear
5:55 PM 91.8 °F 92.6 °F 62.6 °F 38% 29.73 in 10.0 mi Calm Calm - N/A   Clear
6:15 PM 91.4 °F 92.4 °F 63.3 °F 39% 29.73 in 10.0 mi Calm Calm - N/A   Clear
6:35 PM 90.9 °F 91.6 °F 62.4 °F 39% 29.73 in 10.0 mi Calm Calm - N/A   Clear
6:55 PM 90.0 °F 91.7 °F 64.8 °F 43% 29.73 in 10.0 mi Calm Calm - N/A   Clear
7:15 PM 88.5 °F 91.9 °F 67.5 °F 50% 29.73 in 10.0 mi Calm Calm - N/A   Clear
7:35 PM 84.9 °F 90.1 °F 70.9 °F 63% 29.74 in 10.0 mi Calm Calm - N/A   Clear
7:55 PM 82.0 °F 86.5 °F 71.4 °F 70% 29.74 in 10.0 mi Calm Calm - N/A   Clear
8:15 PM 80.1 °F 83.6 °F 71.2 °F 74% 29.73 in 10.0 mi Calm Calm - N/A   Clear
8:35 PM 78.3 °F - 70.0 °F 76% 29.74 in 10.0 mi Calm Calm - N/A   Clear
8:55 PM 76.8 °F - 70.7 °F 81% 29.74 in 10.0 mi Calm Calm - N/A   Clear
9:15 PM 76.1 °F - 69.6 °F 80% 29.75 in 10.0 mi Calm Calm - N/A   Clear
9:35 PM 75.4 °F - 68.5 °F 79% 29.76 in 10.0 mi Calm Calm - N/A   Clear
9:55 PM 74.3 °F - 68.9 °F 83% 29.76 in 10.0 mi Calm Calm - N/A   Scattered Clouds
10:15 PM 74.5 °F - 70.0 °F 86% 29.76 in 10.0 mi Calm Calm - N/A   Scattered Clouds
10:35 PM 74.7 °F - 70.3 °F 86% 29.77 in 10.0 mi Calm Calm - N/A   Scattered Clouds
10:55 PM 74.5 °F - 70.7 °F 88% 29.77 in 10.0 mi Calm Calm - N/A   Mostly Cloudy
11:15 PM 74.8 °F - 70.9 °F 87% 29.77 in 10.0 mi Calm Calm - N/A   Mostly Cloudy
11:35 PM 75.2 °F - 70.9 °F 86% 29.77 in 10.0 mi Calm Calm - N/A   Mostly Cloudy
11:55 PM 75.4 °F - 71.1 °F 86% 29.77 in 10.0 mi Calm Calm - N/A   Mostly Cloudy